TimeCST,TemperatureF,Dew PointF,Humidity,Sea Level PressureIn,VisibilityMPH,Wind Direction,Wind SpeedMPH,Gust SpeedMPH,PrecipitationIn,Events,Conditions,WindDirDegrees,DateUTC
12:15 AM,40.8,28.2,61,29.80,10.0,West,12.7,-,N/A,,Overcast,280,2013-02-14 06:15:00
12:35 AM,40.5,28.4,62,29.80,10.0,West,11.5,-,N/A,,Overcast,280,2013-02-14 06:35:00
12:55 AM,41.2,28.4,60,29.81,10.0,WNW,13.8,-,N/A,,Overcast,290,2013-02-14 06:55:00
1:15 AM,41.4,28.8,61,29.81,10.0,NW,16.1,19.6,N/A,,Overcast,310,2013-02-14 07:15:00
1:35 AM,41.9,29.3,61,29.82,10.0,NW,13.8,-,N/A,,Overcast,310,2013-02-14 07:35:00
1:55 AM,42.3,29.3,60,29.83,10.0,NW,13.8,17.3,N/A,,Overcast,310,2013-02-14 07:55:00
2:15 AM,41.9,29.3,61,29.83,10.0,NW,12.7,-,N/A,,Mostly Cloudy,310,2013-02-14 08:15:00
2:35 AM,41.0,29.3,63,29.84,10.0,NW,15.0,20.7,N/A,,Scattered Clouds,310,2013-02-14 08:35:00
2:55 AM,40.1,29.3,65,29.85,10.0,NW,13.8,-,N/A,,Scattered Clouds,310,2013-02-14 08:55:00
3:15 AM,39.0,29.3,68,29.85,10.0,WNW,12.7,17.3,N/A,,Clear,300,2013-02-14 09:15:00
3:35 AM,38.3,29.1,70,29.86,10.0,WNW,15.0,-,N/A,,Clear,300,2013-02-14 09:35:00
3:55 AM,37.6,28.9,71,29.85,10.0,NW,9.2,-,N/A,,Clear,310,2013-02-14 09:55:00
4:15 AM,34.7,28.2,77,29.86,10.0,Calm,Calm,-,N/A,,Clear,0,2013-02-14 10:15:00
4:35 AM,36.5,29.1,75,29.87,10.0,NW,13.8,-,N/A,,Clear,320,2013-02-14 10:35:00
4:55 AM,36.7,29.1,74,29.87,10.0,NW,11.5,-,N/A,,Clear,320,2013-02-14 10:55:00
5:15 AM,36.3,28.9,75,29.89,10.0,WNW,11.5,-,N/A,,Clear,300,2013-02-14 11:15:00
5:35 AM,35.1,28.6,77,29.90,10.0,Calm,Calm,-,N/A,,Clear,0,2013-02-14 11:35:00
5:55 AM,34.3,28.4,79,29.91,10.0,Calm,Calm,-,N/A,,Clear,0,2013-02-14 11:55:00
6:15 AM,33.4,28.2,81,29.92,10.0,Calm,Calm,-,N/A,,Clear,0,2013-02-14 12:15:00
6:35 AM,33.3,28.4,82,29.93,10.0,Calm,Calm,-,N/A,,Clear,0,2013-02-14 12:35:00
6:55 AM,34.0,28.8,81,29.94,10.0,NW,10.4,-,N/A,,Clear,310,2013-02-14 12:55:00
7:15 AM,33.6,28.8,82,29.95,10.0,WNW,9.2,-,N/A,,Clear,300,2013-02-14 13:15:00
7:35 AM,32.5,28.4,85,29.95,10.0,NW,4.6,-,N/A,,Clear,320,2013-02-14 13:35:00
7:55 AM,34.0,29.7,84,29.96,10.0,Calm,Calm,-,N/A,,Clear,0,2013-02-14 13:55:00
8:15 AM,35.6,30.2,81,29.96,10.0,Calm,Calm,-,N/A,,Clear,0,2013-02-14 14:15:00
8:35 AM,36.1,30.4,80,29.97,10.0,NW,10.4,-,N/A,,Clear,310,2013-02-14 14:35:00
8:55 AM,37.0,30.7,78,29.98,10.0,Calm,Calm,-,N/A,,Clear,0,2013-02-14 14:55:00
9:15 AM,38.5,30.9,74,29.99,10.0,WNW,11.5,-,N/A,,Clear,300,2013-02-14 15:15:00
9:35 AM,39.6,30.7,71,29.98,10.0,NW,8.1,-,N/A,,Clear,320,2013-02-14 15:35:00
9:55 AM,41.2,31.1,67,29.98,10.0,Calm,Calm,-,N/A,,Clear,0,2013-02-14 15:55:00
10:15 AM,42.6,31.5,65,29.99,10.0,WNW,11.5,-,N/A,,Clear,300,2013-02-14 16:15:00
10:35 AM,43.2,31.1,62,29.99,10.0,NW,5.8,-,N/A,,Scattered Clouds,320,2013-02-14 16:35:00
10:55 AM,44.1,30.7,59,30.00,10.0,NW,13.8,20.7,N/A,,Scattered Clouds,320,2013-02-14 16:55:00
11:15 AM,45.0,30.6,57,30.00,10.0,NW,15.0,20.7,N/A,,Mostly Cloudy,320,2013-02-14 17:15:00
11:35 AM,45.5,29.8,54,30.01,10.0,NW,17.3,25.3,N/A,,Mostly Cloudy,320,2013-02-14 17:35:00
11:55 AM,44.6,28.9,54,30.02,10.0,NW,13.8,21.9,N/A,,Mostly Cloudy,310,2013-02-14 17:55:00
12:15 PM,45.3,27.7,50,30.01,10.0,NNW,17.3,24.2,N/A,,Mostly Cloudy,330,2013-02-14 18:15:00
12:35 PM,45.5,25.9,46,30.02,10.0,NW,20.7,-,N/A,,Scattered Clouds,310,2013-02-14 18:35:00
12:55 PM,45.1,21.7,40,30.02,10.0,NW,19.6,-,N/A,,Scattered Clouds,320,2013-02-14 18:55:00
1:15 PM,46.4,22.1,38,30.02,10.0,WNW,17.3,26.5,N/A,,Scattered Clouds,300,2013-02-14 19:15:00
1:35 PM,45.0,23.0,42,30.01,10.0,NW,18.4,27.6,N/A,,Scattered Clouds,310,2013-02-14 19:35:00
1:55 PM,45.3,22.5,40,30.01,10.0,WNW,25.3,32.2,N/A,,Scattered Clouds,300,2013-02-14 19:55:00
2:15 PM,45.5,21.4,38,30.02,10.0,NW,17.3,28.8,N/A,,Mostly Cloudy,310,2013-02-14 20:15:00
2:35 PM,45.1,20.7,38,30.02,10.0,NW,23.0,32.2,N/A,,Overcast,310,2013-02-14 20:35:00
2:55 PM,45.0,18.9,35,30.03,10.0,NW,23.0,33.4,N/A,,Scattered Clouds,310,2013-02-14 20:55:00
3:15 PM,44.8,19.4,36,30.04,10.0,NNW,21.9,27.6,N/A,,Scattered Clouds,330,2013-02-14 21:15:00
3:35 PM,44.6,19.9,37,30.04,10.0,NW,19.6,24.2,N/A,,Mostly Cloudy,310,2013-02-14 21:35:00
3:55 PM,44.6,19.6,37,30.05,10.0,NW,17.3,24.2,N/A,,Scattered Clouds,310,2013-02-14 21:55:00
4:15 PM,44.6,18.1,35,30.05,10.0,NW,17.3,24.2,N/A,,Scattered Clouds,310,2013-02-14 22:15:00
4:35 PM,43.9,17.6,35,30.05,10.0,NW,17.3,25.3,N/A,,Scattered Clouds,320,2013-02-14 22:35:00
4:55 PM,43.2,18.9,38,30.06,10.0,NW,15.0,-,N/A,,Scattered Clouds,320,2013-02-14 22:55:00
5:15 PM,42.4,18.5,38,30.08,10.0,NW,17.3,21.9,N/A,,Mostly Cloudy,310,2013-02-14 23:15:00
5:35 PM,41.7,18.3,39,30.07,10.0,NW,17.3,-,N/A,,Scattered Clouds,320,2013-02-14 23:35:00
5:55 PM,40.3,19.0,43,30.08,10.0,NW,15.0,20.7,N/A,,Scattered Clouds,320,2013-02-14 23:55:00
6:15 PM,39.2,19.0,44,30.08,10.0,NW,12.7,19.6,N/A,,Clear,320,2013-02-15 00:15:00
6:35 PM,37.8,19.9,49,30.09,10.0,NW,10.4,16.1,N/A,,Clear,320,2013-02-15 00:35:00
6:55 PM,38.5,21.2,50,30.10,10.0,NNW,15.0,19.6,N/A,,Mostly Cloudy,330,2013-02-15 00:55:00
7:15 PM,38.3,21.9,52,30.11,10.0,NW,13.8,18.4,N/A,,Overcast,320,2013-02-15 01:15:00
7:35 PM,37.9,24.4,58,30.11,10.0,NW,16.1,21.9,N/A,,Overcast,320,2013-02-15 01:35:00
7:55 PM,36.5,27.3,69,30.12,10.0,NNW,13.8,-,N/A,,Overcast,330,2013-02-15 01:55:00
8:15 PM,35.6,26.6,70,30.12,10.0,NW,13.8,-,N/A,,Mostly Cloudy,320,2013-02-15 02:15:00
8:35 PM,35.4,27.5,73,30.13,10.0,NW,9.2,-,N/A,,Overcast,320,2013-02-15 02:35:00
8:55 PM,34.7,29.3,81,30.14,10.0,NNW,10.4,-,N/A,Snow,Light Snow,330,2013-02-15 02:55:00
9:15 PM,34.7,29.7,82,30.14,10.0,Calm,Calm,-,N/A,Snow,Light Snow,0,2013-02-15 03:15:00
9:35 PM,32.9,32.0,96,30.15,1.0,North,25.3,28.8,N/A,Snow,Light Snow,360,2013-02-15 03:35:00
9:55 PM,30.2,27.0,88,30.18,7.0,North,18.4,29.9,N/A,Snow,Light Snow,360,2013-02-15 03:55:00
10:15 PM,30.0,24.3,79,30.19,10.0,North,25.3,31.1,N/A,Snow,Light Snow,360,2013-02-15 04:15:00
10:35 PM,29.8,19.9,67,30.21,10.0,North,17.3,26.5,N/A,,Overcast,350,2013-02-15 04:35:00
10:55 PM,29.1,16.5,59,30.22,10.0,North,20.7,28.8,N/A,,Overcast,360,2013-02-15 04:55:00
11:15 PM,28.4,16.2,60,30.23,10.0,North,19.6,24.2,N/A,,Overcast,350,2013-02-15 05:15:00
11:35 PM,27.9,13.1,54,30.24,10.0,North,17.3,-,N/A,,Overcast,350,2013-02-15 05:35:00
11:55 PM,27.1,17.1,66,30.25,10.0,NNW,21.9,26.5,N/A,,Overcast,340,2013-02-15 05:55:00